Location: *
(28.3744°N, 81.5492°W)
Time: 03:00:53
(UTC+00:00)

Okean-O - Pass Details

Date: 15 June 2025
Orbit: 628 x 631 km, 98.0° (Epoch: 11 July)

Event Time Altitude Azimuth Distance (km) Brightness Sun altitude
Exits shadow 01:42:24 22° 100° (E) 1,375 3.8 -15.2°
Maximum altitude 01:43:41 26° 72° (ENE) 1,259 3.8 -15.5°
Drops below altitude 10° 01:47:17 10° 17° (NNE) 2,011 5.5 -16.1°
Sets 01:49:46 0° 4° (N) 2,921 6.5 -16.5°
